112  
ASUS45 KPSR 151810  
RWRAZ  
 
ARIZONA HOURLY REGIONAL WEATHER ROUNDUP  
NATIONAL WEATHER SERVICE PHOENIX AZ  
1100 AM MST MON JUL 15 2019  
 
NOTE: FAIR INDICATES FEW OR NO CLOUDS BELOW 12,000 FEET WITH NO  
SIGNIFICANT WEATHER AND/OR S TO VISIBILITY
.  
 
AZZ001>003-036-151900-  
NORTHWEST ARIZONA  
 
CITY SKY/WX TMP DP RH WIND PRES REMARKS
 
BULLHEAD CITY MOSUNNY 106 36 9 SW7 29.81F  
KINGMAN SUNNY 100 36 11 SW12 30.04F  
6HR MIN TEMP: 75; 6HR MAX TEMP: 100;  
 

 
 
AZZ004>008-015-016-018-151900-  
NORTH CENTRAL ARIZONA  
 
CITY SKY/WX TMP DP RH WIND PRES REMARKS
 
GRAND CANYON SUNNY 85 37 18 S8 30.30F  
6HR MIN TEMP: 49; 6HR MAX TEMP: 85;  
 
WILLIAMS SUNNY 82 46 28 W10 30.32  
PRESCOTT SUNNY 90 49 24 MISG 30.18F  
6HR MIN TEMP: 63; 6HR MAX TEMP: 91;  
 
FLAGSTAFF MOSUNNY 82 43 25 MISG 30.33  
6HR MIN TEMP: 53; 6HR MAX TEMP: 82;  
 
PAYSON SUNNY 90 48 24 VRB7 30.20  
PAGE SUNNY 94 44 17 CALM 30.08F  
6HR MIN TEMP: 74; 6HR MAX TEMP: 95;  
 

 
 
AZZ009>014-017-151900-  
NORTHEAST ARIZONA  
 
CITY SKY/WX TMP DP RH WIND PRES REMARKS
 
WINSLOW SUNNY 93 47 20 NW3 30.15F  
6HR MIN TEMP: 64; 6HR MAX TEMP: 94;  
 
SAINT JOHNS SUNNY 89 43 20 MISG 30.21F  
6HR MIN TEMP: 66; 6HR MAX TEMP: 90;  
 
WINDOW ROCK SUNNY 87 44 22 VRB3 30.27F  
6HR MIN TEMP: 52; 6HR MAX TEMP: 88;  
 
SHOW LOW SUNNY 86 41 20 VRB3 30.29  

 
 
AZZ540-542>544-546-548-151900-  
GREATER PHOENIX AREA  
 
CITY SKY/WX TMP DP RH WIND PRES REMARKS
 
PHOENIX MOSUNNY 104 58 21 SE5 29.84F HX 104  
6HR MIN TEMP: 89; 6HR MAX TEMP: 104;  
 
BUCKEYE N/A N/A N/A N/A VRB5 29.86  
GLENDALE SUNNY 102 57 22 E5 29.85F HX 101  
LUKE AFB SUNNY 102 58 23 CALM 29.84F HX 102  
6HR MIN TEMP: 83; 6HR MAX TEMP: 103;  
 
DEER VALLEY SUNNY 100 58 24 W6 29.88F  
6HR MIN TEMP: 85; 6HR MAX TEMP: 101;  
 
SCOTTSDALE SUNNY 101 55 21 S3 29.89F  
6HR MIN TEMP: 87; 6HR MAX TEMP: 102;  
 
MESA-FALCON SUNNY 101 58 24 VRB7 29.87F HX 100  
6HR MIN TEMP: 88; 6HR MAX TEMP: 101;  
 
MESA-GATEWAY MOSUNNY 100 59 25 W6 29.89 HX 100  
CHANDLER SUNNY 100 N/A N/A SW6 29.86F  

 
 
AZZ539-553-151900-  
SOUTHWEST MARICOPA COUNTY AND PINAL COUNTY  
 
CITY SKY/WX TMP DP RH WIND PRES REMARKS
 
CASA GRANDE SUNNY 102 60 25 S7 29.89F HX 103  
6HR MIN TEMP: 82; 6HR MAX TEMP: 103;  
 
GILA BEND FAIR 105 51 16 W6 29.83F HX 102  
6HR MIN TEMP: 84; 6HR MAX TEMP: 105;  
 

 
 
AZZ503-504-507>509-151900-  
SOUTHEAST ARIZONA  
 
CITY SKY/WX TMP DP RH WIND PRES REMARKS
 
TUCSON MOSUNNY 95 57 27 NW8 29.99F  
6HR MIN TEMP: 79; 6HR MAX TEMP: 95;  
 
DAVIS-MONTHAN SUNNY 95 56 26 W7 29.98  
6HR MIN TEMP: 79; 6HR MAX TEMP: 96;  
 
RYAN FIELD N/A 95 55 26 NW5 29.98F  
NOGALES SUNNY 96 51 21 VRB7 30.07F  
6HR MIN TEMP: 71; 6HR MAX TEMP: 98;  
 
SIERRA VISTA SUNNY 92 51 24 E7 30.15  
6HR MIN TEMP: 68; 6HR MAX TEMP: 92;  
 
DOUGLAS SUNNY 93 52 24 W6 30.09F  
6HR MIN TEMP: 64; 6HR MAX TEMP: 93;  
 
SAFFORD SUNNY 98 51 20 W7 29.98F  
6HR MIN TEMP: 77; 6HR MAX TEMP: 99;  
 

 
 
AZZ532-151900-  
SOUTHWEST ARIZONA  
 
CITY SKY/WX TMP DP RH WIND PRES REMARKS
 
YUMA SUNNY 102 54 20 VRB3 29.80F HX 100  
6HR MIN TEMP: 85; 6HR MAX TEMP: 102;  
 

 
 
CAZ041-043-047-048-061-525>527-560>570-151900-  
SOUTHERN CALIFORNIA  
 
CITY SKY/WX TMP DP RH WIND PRES REMARKS
 
DOWNTOWN L.A. SUNNY 81 64 56 CALM 29.91F HAZE  
6HR MIN TEMP: 63; 6HR MAX TEMP: 82;  
 
L.A. AIRPORT MOSUNNY 71 63 75 W12 29.93S HAZE  
6HR MIN TEMP: 63; 6HR MAX TEMP: 72;  
 
SAN DIEGO MOSUNNY 72 64 76 W7 29.94S  
6HR MIN TEMP: 65; 6HR MAX TEMP: 72;  
 
BURBANK SUNNY 83 60 45 SE6 29.92F  
6HR MIN TEMP: 64; 6HR MAX TEMP: 83;  
 
ONTARIO SUNNY 90 59 35 CALM 29.93S  
6HR MIN TEMP: 69; 6HR MAX TEMP: 90;  
 
RIVERSIDE SUNNY 89 57 33 VRB3 29.92F  
6HR MIN TEMP: 63; 6HR MAX TEMP: 89;  
 
PALM SPRINGS SUNNY 107 36 8 VRB7 29.82F HX 100  
6HR MIN TEMP: 79; 6HR MAX TEMP: 107;  
 
IMPERIAL SUNNY 104 48 15 VRB6 29.78S HX 100  
6HR MIN TEMP: 78; 6HR MAX TEMP: 105;  
 
BLYTHE SUNNY 107 44 12 VRB5 29.81F HX 102  
6HR MIN TEMP: 85; 6HR MAX TEMP: 107;  
 
NEEDLES SUNNY 108 38 9 VRB5 29.83F HX 102  
6HR MIN TEMP: 89; 6HR MAX TEMP: 108;  
 

 
 
NVZ020-UTZ003-151900-  
SOUTHERN NEVADA-UTAH  
 
CITY SKY/WX TMP DP RH WIND PRES REMARKS
 
LAS VEGAS SUNNY 102 28 7 VRB7 29.91F  
6HR MIN TEMP: 87; 6HR MAX TEMP: 103;  
 
SALT LAKE CITY MOSUNNY 92 49 22 MISG 30.03  
6HR MIN TEMP: 70; 6HR MAX TEMP: 92;  
 

 
 
NMZ009-TXZ055-151900-  
NEW MEXICO-WEST TEXAS  
 
CITY SKY/WX TMP DP RH WIND PRES REMARKS
 
ALBUQUERQUE MOSUNNY 86 54 33 NW3 30.18F  
6HR MIN TEMP: 71; 6HR MAX TEMP: 86;  
 
EL PASO MOSUNNY 93 47 20 VRB3 30.08F  
6HR MIN TEMP: 76; 6HR MAX TEMP: 96;  
 

 
 
   
.......................KEY.....................
 
 
SKY/WX - SKY CONDITION/WEATHER  
TMP - TEMPERATURE IN FAHRENHEIT  
DP - DEW POINT IN FAHRENHEIT  
RH - RELATIVE HUMIDITY IN PERCENT  
WIND - DIRECTION AND SPEED IN MILES PER HOUR (MPH)  
VRB - VARIABLE WIND DIRECTION  
PRES - MEAN SEA LEVEL PRESSURE IN INCHES OF MERCURY  
F - FALLING PRESSURE R - RISING PRESSURE  
S - STEADY PRESSURE  
VSB - VISIBILITY IN MILES  
HX - HEAT INDEX IN FAHRENHEIT  
WCI - WIND CHILL INDEX IN FAHRENHEIT  
TC - TEMPERATURE IN CELSIUS WHICH IS ALSO KNOWN AS  
TEMPERATURE IN CENTIGRADE  
AFB - AIR FORCE BASE  
LUKE AFB IS LUKE AIR FORCE BASE  
DAVIS-MONTHAN IS DAVIS-MONTHAN AIR FORCE BASE  
NAS - NAVAL AIR STATION  
EL CENTRO NAS IS EL CENTRO NAVAL AIR STATION  
N/A - NOT AVAILABLE  
 
 
 
CLICK HERE TO GO TO PREVIOUS BULLETINS.

The Nexlab AZ Page Main Text Page